map of ASK home
ASK - Airport
Location
City:  Yamoussoukro, Lacs, Côte d'Ivoire (Ivory Coast)
ICAO:DIYO
IATA:ASK

Details
Type:Airport (Aerodrome, Airfield)
Use:Public/Civil, International (customs port of entry)
Latitude:6°54'11"N (6.903167)
Longitude:5°21'56"W (-5.365580)
Datum:WGS 1984
Elevation:699 ft (213 m)
Variation:4.75°W (WMM2015 magnetic declination)
0.11° annual change
Runways:1
Longest:9843 × 148 ft (3000 × 45 m), paved

Time
Time Zone:UTC+0
Local Time:

Weather
METAR:DIYO 262300Z 00000KT CAVOK 25/24 Q1013 NOSIG
TAF:DIYO 261700Z 2618/2718 VRB02KT 8000 FEW012 PROB40
TEMPO 2703/2708 8000 BR
TEMPO 2709/2712 BKN011
BECMG 2711/2712 20010KT PROB40
TEMPO 2715/2718 TS BKN012 FEW020CB

Related Locations
Nearby:
Farthest:FUN: 12116 mi / 19498 km
Funafuti Atoll [Intl], TV

Find:

   beyond  
but within

Other Information
Maps:
NOTAMs:
Links:
Sources:

  
flag of Côte d'Ivoire (Ivory Coast)   

Sectional Chart

Flight Planning
at skyvector.com

Satellite Image

Google Maps Satellite view

 

Copyright © 2004-2017 Karl L. Swartz. All rights reserved.
The Great Circle Mapper name and logo are trademarks of the Great Circle Mapper.
All other trademarks mentioned herein belong to their respective owners.
Please see credits for attibutions and further copyright information.

  Follow gcmap on Facebook Follow gcmap on Twitter Follow gcmap on Google+ GCmap on LinkedIn

hCard Microformat

Geo Microformat